TimeEDT,TemperatureF,Dew PointF,Humidity,Sea Level PressureIn,VisibilityMPH,Wind Direction,Wind SpeedMPH,Gust SpeedMPH,PrecipitationIn,Events,Conditions,WindDirDegrees,DateUTC
12:52 AM,51.1,44.1,77,30.31,10.0,Calm,Calm,-,N/A,,Clear,0,2013-05-19 04:52:00
1:52 AM,46.9,44.1,90,30.31,10.0,Calm,Calm,-,N/A,,Clear,0,2013-05-19 05:52:00
2:52 AM,45.0,43.0,93,30.32,10.0,Calm,Calm,-,N/A,,Clear,0,2013-05-19 06:52:00
3:52 AM,44.1,42.1,93,30.32,10.0,Calm,Calm,-,N/A,,Clear,0,2013-05-19 07:52:00
4:52 AM,43.0,41.0,93,30.32,10.0,Calm,Calm,-,N/A,,Clear,0,2013-05-19 08:52:00
5:52 AM,42.1,39.9,92,30.34,10.0,Calm,Calm,-,N/A,,Clear,0,2013-05-19 09:52:00
6:52 AM,45.0,42.1,90,30.35,10.0,Calm,Calm,-,N/A,,Clear,0,2013-05-19 10:52:00
7:52 AM,51.1,45.0,80,30.35,10.0,Calm,Calm,-,N/A,,Clear,0,2013-05-19 11:52:00
8:52 AM,57.9,48.0,70,30.35,10.0,SSE,3.5,-,N/A,,Partly Cloudy,160,2013-05-19 12:52:00
9:52 AM,63.0,48.9,60,30.35,10.0,South,8.1,-,N/A,,Scattered Clouds,180,2013-05-19 13:52:00
10:52 AM,63.0,48.0,58,30.35,10.0,South,5.8,-,N/A,,Partly Cloudy,180,2013-05-19 14:52:00
11:52 AM,64.9,46.9,52,30.34,10.0,SW,9.2,-,N/A,,Partly Cloudy,220,2013-05-19 15:52:00
12:52 PM,66.0,46.9,50,30.32,10.0,SSW,9.2,16.1,N/A,,Overcast,210,2013-05-19 16:52:00
1:52 PM,66.0,46.9,50,30.30,10.0,SSW,10.4,-,N/A,,Mostly Cloudy,210,2013-05-19 17:52:00
2:52 PM,63.0,48.9,60,30.31,10.0,SW,8.1,-,N/A,,Overcast,220,2013-05-19 18:52:00
3:52 PM,62.1,46.9,58,30.30,10.0,Variable,6.9,-,N/A,,Overcast,0,2013-05-19 19:52:00
4:52 PM,57.9,50.0,75,30.31,10.0,SSW,4.6,-,N/A,,Overcast,200,2013-05-19 20:52:00
5:52 PM,55.9,53.1,90,30.31,7.0,Variable,3.5,-,0.01,Rain,Light Rain,0,2013-05-19 21:52:00
5:59 PM,55.4,53.6,94,30.27,9.0,SSW,4.6,-,0.01,Rain,Light Rain,200,2013-05-19 21:59:00
6:10 PM,55.4,53.6,94,30.27,10.0,South,4.6,-,0.01,Rain,Light Rain,190,2013-05-19 22:10:00
6:29 PM,55.4,53.6,94,30.27,10.0,SSW,4.6,-,0.01,,Overcast,200,2013-05-19 22:29:00
6:52 PM,55.9,53.1,90,30.29,10.0,South,6.9,-,0.01,,Overcast,190,2013-05-19 22:52:00
7:52 PM,55.0,52.0,89,30.29,10.0,South,6.9,-,0.01,,Overcast,190,2013-05-19 23:52:00
8:02 PM,55.4,51.8,88,30.26,10.0,South,6.9,-,N/A,,Overcast,180,2013-05-20 00:02:00
8:21 PM,53.6,51.8,94,30.25,5.0,South,6.9,-,0.00,Rain,Light Rain,170,2013-05-20 00:21:00
8:52 PM,54.0,52.0,93,30.27,4.0,South,9.2,-,0.01,,Overcast,180,2013-05-20 00:52:00
9:52 PM,54.0,52.0,93,30.26,10.0,Variable,6.9,-,0.00,Rain,Light Rain,0,2013-05-20 01:52:00
10:52 PM,54.0,52.0,93,30.24,6.0,South,8.1,-,0.01,,Overcast,190,2013-05-20 02:52:00
11:52 PM,54.0,52.0,93,30.22,6.0,South,5.8,-,N/A,,Overcast,180,2013-05-20 03:52:00